Location: Newark
(43.4306°N, 0.3089°E)
Time: 08:40:34
(UTC+00:00)

A-11 Canister half - Pass Details

Date: 03 September 2019
Orbit: 1513 x 1686 km, 47.2° (Epoch: 18 September)

Event Time Altitude Azimuth Distance (km) Brightness Sun altitude
Rises 19:39:27 0° 291° (WNW) 4,705 13.7 -12.7°
Reaches altitude 10° 19:42:28 10° 291° (WNW) 3,738 12.5 -13.2°
Maximum altitude 19:51:59 84° 205° (SSW) 1,604 9.1 -14.7°
Enters shadow 19:59:20 21° 120° (ESE) 3,085 9.9 -15.9°
